Simultaneous Nadir Overpasses (SNOs) Predictions

Prediction of SNOs between AQUA and METOP-B Satellite Orbit:

Table of predicted SNOs for the next 14.0 days since TLE Epoch: 7/19/2013
Index Date (AQUA) Time (AQUA) Lat,Lon (AQUA) SZA (AQUA ) Date (METOP-B) Time (METOP-B) Lat,Lon (METOP-B) SZA (METOP-B ) Distance(km) Time Diff (sec)
1 07/21/2013 06:02:28 -73.74, -96.12 126.64 07/21/2013 06:01:57 -73.75, -96.05 126.63 2.37 31
2 07/21/2013 06:51:57 73.80, 71.38 53.44 07/21/2013 06:52:36 73.77, 71.34 53.41 3.19 39
3 07/24/2013 01:36:40 -73.73, -29.65 126.08 07/24/2013 01:36:19 -73.72, -29.71 126.08 2.37 21
4 07/24/2013 02:26:09 73.80, 137.84 54.00 07/24/2013 02:26:57 73.78, 137.78 53.99 2.22 48
5 07/26/2013 20:21:16 73.23,-129.80 54.00 07/26/2013 20:20:08 73.16,-131.88 54.03 67.39 68
6 07/26/2013 21:10:51 -73.74, 36.78 125.46 07/26/2013 21:10:39 -73.73, 36.73 125.46 1.75 12
7 07/26/2013 22:00:20 73.81,-155.75 54.63 07/26/2013 22:01:17 73.79,-155.79 54.61 2.77 57
8 07/29/2013 15:55:34 73.58, -64.08 55.02 07/29/2013 15:54:22 73.51, -64.68 55.00 20.43 72
9 07/29/2013 16:45:03 -73.76, 103.17 124.78 07/29/2013 16:45:00 -73.74, 103.16 124.80 2.71 3
10 07/29/2013 17:34:32 73.84, -89.37 55.32 07/29/2013 17:35:37 73.84, -89.26 55.31 3.46 65
11 08/01/2013 11:29:47 73.69, 2.15 55.83 08/01/2013 11:28:39 73.71, 2.19 55.87 3.07 68
12 08/01/2013 12:19:14 -73.76, 169.64 124.09 08/01/2013 12:19:21 -73.74, 169.59 124.10 2.28 7




NCC Satellite Simultaneous Nadir Overpasses (SNOs) Prediction Service
